Location: Coed Ely
(51.5661°N, 3.4150°W)
Time: 01:40:07
(UTC+00:00)

Cosmos 2278 Rocket - Pass Details

Date: 28 January 2021
Orbit: 840 x 847 km, 71.0° (Epoch: 28 February)

Event Time Altitude Azimuth Distance (km) Brightness Sun altitude
Rises 19:48:40 0° 226° (SW) 3,395 5.9 -26.7°
Reaches altitude 10° 19:51:10 10° 232° (SW) 2,465 5.2 -27.0°
Maximum altitude 19:56:41 51° 308° (NW) 1,060 2.9 -27.9°
Enters shadow 19:59:11 30° 7° (N) 1,469 3.4 -28.3°
